Location: Camp Roosevelt
(41.7914°N, 81.1673°W)
Time: 09:09:14
(UTC+00:00)

Cosmos 2082 - Pass Details

Date: 29 October 2020
Orbit: 832 x 857 km, 71.0° (Epoch: 26 November)

Event Time Altitude Azimuth Distance (km) Brightness Sun altitude
Rises 23:17:01 0° 341° (NNW) 3,436 7.0 -10.8°
Reaches altitude 10° 23:19:38 10° 349° (N) 2,497 6.2 -11.3°
Maximum altitude 23:25:02 40° 59° (ENE) 1,243 4.2 -12.3°
Drops below altitude 10° 23:30:22 10° 128° (SE) 2,483 5.7 -13.2°
Enters shadow 23:31:45 - 133° (SE) 2,969 6.2 -13.5°
